User: anonymous   Login
Location: Caltech
(34.1382°N, 118.1253°W)
Time: 00:27:43
(UTC-07:00)
Language:

Iridium 91 - Orbit

View from above orbital plane
View from above orbital plane
View from above satellite
View from above satellite

Ground track
Ground track

The orbit data is extracted from the following two-line orbital elements,

1 27372U 02005A   18115.65024484 +.00000091 +00000-0 +25259-4 0  9994
2 27372 086.3971 156.6204 0002802 094.6030 265.5486 14.34222006856363
Epoch (UTC): 25 April 2018 15:36:21
Eccentricity: 0.0002802
inclination: 86.3971°
perigee height: 775 km
apogee height: 779 km
right ascension of ascending node: 156.6204°
argument of perigee: 94.6030°
revolutions per day: 14.34222006
mean anomaly at epoch: 265.5486°
orbit number at epoch: 85636

The dashed part of the orbit path shows where the satellite is in the earth's shadow,  

DLR